Location: Br�znic
(45.9167°N, 22.6500°E)
Time: 17:04:05
(UTC+00:00)

Cosmos 1862 Rocket - Pass Details

Date: 03 March 2021
Orbit: 603 x 634 km, 82.5° (Epoch: 15 April)

Event Time Altitude Azimuth Distance (km) Brightness Sun altitude
Rises 17:22:20 0° 348° (NNW) 2,944 7.2 -11.8°
Reaches altitude 10° 17:24:36 10° 347° (NNW) 2,030 6.4 -12.2°
Maximum altitude 17:29:05 70° 264° (W) 676 3.9 -13.0°
Drops below altitude 10° 17:33:31 10° 181° (S) 2,007 6.1 -13.8°
Sets 17:35:44 0° 179° (S) 2,907 6.9 -14.2°
